Regional Weather Roundup
Issued by NWS

Home | Current Version | Previous Version | Text Only | Print | Product List | Glossary On
Versions: 1 2 3 4 5 6 7 8 9 10 11 12 13 14 15 16 17 18 19 20 21 22 23 24 25 26 27 28 29 30 31 32 33 34 35 36 37 38 39 40 41 42 43 44 45 46 47 48 49 50
059
ASUS46 KSTO 270615
RWRCA

NORTHERN AND CENTRAL CA REGIONAL WEATHER ROUNDUP
NATIONAL WEATHER SERVICE SACRAMENTO CA
1100 PM PDT TUE JUL 26 2016

NOTE: FAIR INDICATES FEW OR NO CLOUDS BELOW 12,000 FEET WITH NO
SIGNIFICANT WEATHER AND/OR OBSTRUCTIONS TO VISIBILITY.

CAZ001-003-270700-
NORTHWEST AREA

CITY           SKY/WX    TMP DP  RH WIND       PRES   REMARKS
CRESCENT CITY  CLEAR     58  53  84 SE15      29.95R
UKIAH          CLEAR     77  52  41 CALM      29.87R
$$

CAZ006-505>513-270700-
BAY AREA

CITY           SKY/WX    TMP DP  RH WIND       PRES   REMARKS
SANTA ROSA     CLEAR     64  51  62 S5        29.84R
SAN RAFAEL     N/A       73  MM  MM MISG
NAPA           CLEAR     65  57  75 S7        29.84R
CONCORD        CLEAR     77  49  37 E3        29.83R
OAKLAND CITY   N/A       61  MM  MM MISG
OAKLAND        PTCLDY    63  56  78 NW7       29.87R
SAN FRAN CITY  N/A       57  MM  78 MISG
SAN FRAN ARPT  PTCLDY    58  50  75 W12       29.87R
LIVERMORE      CLEAR     79  46  31 NW3       29.85R
HAYWARD        CLEAR     69  50  50 N6        29.86S
REDWOOD CITY   N/A       68  MM  69 MISG
MOFFETT ARPT   PTCLDY    71  57  61 W3        29.87S
SAN JOSE ARPT  MOCLDY    75  51  43 CALM      29.86S
$$
CAZ034-037-514>518-270700-
CENTRAL COAST

CITY           SKY/WX    TMP DP  RH WIND       PRES   REMARKS
WATSONVILLE    CLOUDY    54  53  97 CALM      29.91S FOG
SALINAS        CLOUDY    54  52  93 NW8       29.90S
MONTEREY       FOG       53  51  93 NE3       29.91S VSB 1
SAN LUIS OBISP CLEAR     59  53  80 W6        29.89F
SANTA MARIA    MOCLDY    56  55  97 W3        29.91S FOG
$$
CAZ015-016-270700-
NORTHERN SACRAMENTO VALLEY

CITY           SKY/WX    TMP DP  RH WIND       PRES   REMARKS
REDDING        CLEAR     85  53  33 CALM      29.81R
RED BLUFF      CLEAR     84  58  40 S5        29.80S
OROVILLE       CLEAR     81  53  37 E6        29.81S
$$
CAZ016>018-270700-
SOUTHERN SACRAMENTO VALLEY

CITY           SKY/WX    TMP DP  RH WIND       PRES   REMARKS
AUBURN         CLEAR     79  43  27 E7        29.92S
BEALE AFB      CLEAR     80  39  23 NE6       29.78S
LINCOLN        FAIR      72  46  40 E8        29.79S
MARYSVILLE     CLEAR     81  48  31 E8        29.79R
SAC INTL ARPT  CLEAR     86  52  30 S6        29.78R
MATHER AIRPORT CLEAR     77  50  38 SE6       29.80R
DOWNTOWN SAC   N/A       84  MM  MM MISG
SAC EXEC ARPT  CLEAR     80  50  34 SW3       29.79S
VACAVILLE      CLEAR     77  49  37 CALM      29.80R
TRAVIS AFB     CLEAR     76  48  37 SW17      29.78R
$$
CAZ019>021-270700-
SAN JOAQUIN VALLEY

CITY           SKY/WX    TMP DP  RH WIND       PRES   REMARKS
STOCKTON       CLEAR     75  58  55 NW5       29.81R
MODESTO        CLEAR     87  53  31 NW8       29.80R
MERCED         CLEAR     79  63  57 CALM      29.81R
LEMOORE        CLEAR     82  50  32 W5        29.82R
FRESNO         PTCLDY    89  53  29 NW6       29.81S
HANFORD        CLEAR     87  53  31 NW6       29.82R
PORTERVILLE    CLEAR     83  61  47 CALM      29.83S
BAKERSFIELD    CLEAR     92  45  19 N7        29.82R
$$
CAZ011-012-071-270700-
NORTHERN MOUNTAINS

CITY           SKY/WX    TMP DP  RH WIND       PRES   REMARKS
YREKA          CLEAR     79  51  37 N14       30.02R
MOUNT SHASTA   CLEAR     72  50  45 NE3       30.07R
ALTURAS        CLEAR     71  42  35 E3        30.10S
$$
CAZ011-012-071-270700-
SIERRA NEVADA MTNS

CITY           SKY/WX    TMP DP  RH WIND       PRES   REMARKS
TRUCKEE        CLEAR     57  36  44 S3        30.27S
TAHOE VLY ARPT CLEAR     58  37  45 S3        30.29R
MAMMOTH LAKES    N/A     67  27  22 CALM      30.34S
$$




USA.gov is the U.S. government's official web portal to all federal, state and local government web resources and services.